| time (UTC) | temp F | wind direction | speed MPH | gust MPH | rain 1hr in | rain 24hr in | rain mn in | humidity % | barometer mb |
| 20260507155405 | 50 | 286 | 1.0 | 11.0 | 0.00 | 0.17 | 0.00 | 86 | 1013.0 |
| 20260507154610 | 49 | 272 | 4.0 | 11.0 | 0.00 | 0.17 | 0.00 | 85 | 1012.9 |
| 20260507154405 | 49 | 266 | 4.0 | 11.0 | 0.00 | 0.17 | 0.00 | 85 | 1013.0 |
| 20260507153405 | 49 | 270 | 6.0 | 16.0 | 0.00 | 0.17 | 0.00 | 84 | 1012.7 |
| 20260507153210 | 49 | 253 | 4.0 | 16.0 | 0.00 | 0.17 | 0.00 | 84 | 1012.7 |
| 20260507152510 | 49 | 269 | 6.0 | 12.0 | 0.00 | 0.17 | 0.00 | 85 | 1012.7 |
| 20260507152405 | 49 | 277 | 6.0 | 12.0 | 0.00 | 0.17 | 0.00 | 85 | 1012.7 |
| 20260507151405 | 49 | 269 | 4.0 | 16.0 | 0.00 | 0.17 | 0.00 | 85 | 1012.6 |
| 20260507150405 | 49 | 281 | 8.0 | 19.0 | 0.00 | 0.17 | 0.00 | 85 | 1012.6 |
| 20260507145405 | 50 | 284 | 12.0 | 25.0 | 0.00 | 0.17 | 0.00 | 83 | 1012.6 |
| 20260507145010 | 50 | 253 | 9.0 | 20.0 | 0.00 | 0.17 | 0.00 | 84 | 1012.6 |
| 20260507144405 | 50 | 276 | 8.0 | 16.0 | 0.00 | 0.17 | 0.00 | 85 | 1012.5 |
| 20260507144310 | 50 | 290 | 6.0 | 16.0 | 0.00 | 0.17 | 0.00 | 85 | 1012.5 |
| 20260507143405 | 50 | 285 | 4.0 | 19.0 | 0.00 | 0.17 | 0.00 | 86 | 1012.4 |
| 20260507142910 | 50 | 256 | 1.0 | 19.0 | 0.00 | 0.17 | 0.00 | 88 | 1012.4 |
| 20260507142405 | 49 | 279 | 6.0 | 14.0 | 0.00 | 0.17 | 0.00 | 87 | 1012.2 |
| 20260507141510 | 49 | 282 | 4.0 | 19.0 | 0.00 | 0.17 | 0.00 | 87 | 1012.4 |
| 20260507141405 | 49 | 275 | 6.0 | 19.0 | 0.00 | 0.17 | 0.00 | 87 | 1012.2 |
| 20260507140810 | 49 | 275 | 9.0 | 19.0 | 0.00 | 0.17 | 0.00 | 86 | 1012.2 |
| 20260507140406 | 49 | 271 | 12.0 | 19.0 | 0.00 | 0.17 | 0.00 | 85 | 1012.2 |
| 20260507140110 | 50 | 265 | 9.0 | 20.0 | 0.00 | 0.17 | 0.00 | 85 | 1012.2 |
| 20260507135405 | 50 | 247 | 12.0 | 25.0 | 0.00 | 0.17 | 0.00 | 84 | 1012.2 |
| 20260507134710 | 51 | 264 | 9.0 | 25.0 | 0.00 | 0.17 | 0.00 | 83 | 1012.2 |
| 20260507134405 | 51 | 278 | 9.0 | 17.0 | 0.00 | 0.17 | 0.00 | 83 | 1012.1 |
| 20260507134007 | 50 | 270 | 4.0 | 17.0 | 0.00 | 0.17 | 0.00 | 84 | 1012.2 |
| 20260507133405 | 50 | 273 | 8.0 | 19.0 | 0.00 | 0.17 | 0.00 | 84 | 1012.1 |
| 20260507133310 | 50 | 284 | 8.0 | 19.0 | 0.00 | 0.17 | 0.00 | 84 | 1012.1 |
| 20260507132405 | 50 | 276 | 14.0 | 20.0 | 0.00 | 0.17 | 0.00 | 82 | 1012.1 |
| 20260507131405 | 50 | 275 | 9.0 | 25.0 | 0.00 | 0.17 | 0.00 | 84 | 1012.0 |
| 20260507131210 | 50 | 265 | 12.0 | 25.0 | 0.00 | 0.17 | 0.00 | 84 | 1012.0 |
| 20260507130405 | 50 | 264 | 12.0 | 22.0 | 0.00 | 0.17 | 0.00 | 85 | 1011.9 |
| 20260507125810 | 50 | 265 | 11.0 | 22.0 | 0.00 | 0.17 | 0.00 | 87 | 1011.9 |
| 20260507125405 | 50 | 283 | 11.0 | 22.0 | 0.00 | 0.17 | 0.00 | 87 | 1011.9 |
| 20260507125107 | 50 | 272 | 6.0 | 16.0 | 0.00 | 0.17 | 0.00 | 87 | 1011.9 |
| 20260507124405 | 50 | 272 | 8.0 | 20.0 | 0.00 | 0.17 | 0.00 | 87 | 1011.9 |
| 20260507123710 | 50 | 270 | 12.0 | 20.0 | 0.00 | 0.17 | 0.00 | 88 | 1011.7 |
| 20260507123405 | 50 | 282 | 9.0 | 17.0 | 0.00 | 0.17 | 0.00 | 89 | 1011.6 |
| 20260507122405 | 50 | 290 | 6.0 | 14.0 | 0.00 | 0.17 | 0.00 | 88 | 1011.7 |
| 20260507122310 | 50 | 288 | 6.0 | 14.0 | 0.00 | 0.17 | 0.00 | 88 | 1011.7 |
| 20260507121607 | 50 | 281 | 6.0 | 19.0 | 0.00 | 0.17 | 0.00 | 86 | 1011.7 |
| 20260507121405 | 50 | 273 | 8.0 | 19.0 | 0.00 | 0.17 | 0.00 | 86 | 1011.6 |
| 20260507120910 | 50 | 282 | 9.0 | 17.0 | 0.00 | 0.17 | 0.00 | 84 | 1011.6 |
| 20260507120405 | 51 | 247 | 11.0 | 17.0 | 0.00 | 0.17 | 0.00 | 84 | 1011.5 |
| 20260507115510 | 50 | 264 | 11.0 | 19.0 | 0.00 | 0.17 | 0.00 | 85 | 1011.2 |
| 20260507115405 | 50 | 264 | 8.0 | 19.0 | 0.00 | 0.17 | 0.00 | 86 | 1011.4 |
| 20260507114405 | 50 | 272 | 8.0 | 17.0 | 0.00 | 0.17 | 0.00 | 88 | 1011.4 |
| 20260507114110 | 50 | 285 | 8.0 | 17.0 | 0.00 | 0.17 | 0.00 | 88 | 1011.2 |
| 20260507113405 | 50 | 281 | 8.0 | 17.0 | 0.00 | 0.17 | 0.00 | 87 | 1011.2 |
| 20260507112707 | 50 | 270 | 11.0 | 17.0 | 0.00 | 0.17 | 0.00 | 86 | 1011.1 |
| 20260507112405 | 50 | 265 | 8.0 | 16.0 | 0.00 | 0.17 | 0.00 | 86 | 1011.1 |
| 20260507112010 | 51 | 262 | 8.0 | 16.0 | 0.00 | 0.17 | 0.00 | 85 | 1011.0 |
| 20260507111405 | 51 | 261 | 4.0 | 20.0 | 0.00 | 0.17 | 0.00 | 85 | 1011.0 |
| 20260507110610 | 52 | 262 | 9.0 | 20.0 | 0.00 | 0.17 | 0.00 | 82 | 1010.7 |
| 20260507110405 | 52 | 243 | 9.0 | 16.0 | 0.00 | 0.17 | 0.00 | 82 | 1010.7 |
| 20260507105405 | 52 | 255 | 4.0 | 14.0 | 0.00 | 0.17 | 0.00 | 83 | 1010.7 |
| 20260507105207 | 52 | 246 | 6.0 | 17.0 | 0.00 | 0.17 | 0.00 | 82 | 1010.7 |
| 20260507104405 | 52 | 211 | 9.0 | 17.0 | 0.00 | 0.17 | 0.00 | 82 | 1010.7 |
| 20260507103405 | 52 | 254 | 6.0 | 16.0 | 0.00 | 0.17 | 0.00 | 83 | 1010.7 |
| 20260507102405 | 52 | 229 | 9.0 | 16.0 | 0.00 | 0.17 | 0.00 | 85 | 1010.6 |
| 20260507101707 | 52 | 190 | 4.0 | 16.0 | 0.00 | 0.17 | 0.00 | 85 | 1010.6 |
| 20260507101405 | 52 | 224 | 6.0 | 17.0 | 0.00 | 0.17 | 0.00 | 84 | 1010.7 |
| 20260507101010 | 52 | 220 | 8.0 | 17.0 | 0.00 | 0.17 | 0.00 | 84 | 1010.6 |
| 20260507100405 | 52 | 215 | 4.0 | 19.0 | 0.00 | 0.17 | 0.00 | 85 | 1010.6 |
| 20260507095610 | 52 | 234 | 4.0 | 24.0 | 0.00 | 0.17 | 0.00 | 84 | 1010.5 |
| 20260507095405 | 51 | 230 | 8.0 | 24.0 | 0.00 | 0.17 | 0.00 | 84 | 1010.5 |
| 20260507094910 | 51 | 228 | 12.0 | 24.0 | 0.00 | 0.17 | 0.00 | 84 | 1010.5 |
| 20260507094405 | 51 | 222 | 9.0 | 19.0 | 0.00 | 0.17 | 0.00 | 85 | 1010.4 |
| 20260507093507 | 51 | 229 | 9.0 | 19.0 | 0.00 | 0.17 | 0.00 | 87 | 1010.2 |
| 20260507093405 | 51 | 234 | 9.0 | 19.0 | 0.00 | 0.17 | 0.00 | 87 | 1010.2 |
| 20260507092405 | 50 | 237 | 8.0 | 25.0 | 0.00 | 0.17 | 0.00 | 89 | 1010.2 |
| 20260507091405 | 51 | 216 | 9.0 | 19.0 | 0.00 | 0.17 | 0.00 | 88 | 1010.1 |
| 20260507090710 | 51 | 208 | 8.0 | 17.0 | 0.00 | 0.17 | 0.00 | 87 | 1010.1 |
| 20260507090405 | 51 | 230 | 9.0 | 19.0 | 0.00 | 0.17 | 0.00 | 87 | 1010.0 |
| 20260507090010 | 51 | 240 | 8.0 | 19.0 | 0.00 | 0.17 | 0.00 | 87 | 1009.9 |
| 20260507085405 | 51 | 238 | 9.0 | 20.0 | 0.00 | 0.17 | 0.00 | 88 | 1009.9 |
| 20260507085310 | 51 | 239 | 9.0 | 27.0 | 0.00 | 0.17 | 0.00 | 88 | 1009.9 |
| 20260507084610 | 51 | 227 | 11.0 | 27.0 | 0.00 | 0.17 | 0.00 | 88 | 1009.7 |
| 20260507084405 | 51 | 225 | 12.0 | 27.0 | 0.00 | 0.17 | 0.00 | 88 | 1009.7 |
| 20260507083907 | 51 | 220 | 8.0 | 20.0 | 0.00 | 0.17 | 0.00 | 89 | 1009.7 |
| 20260507083405 | 51 | 228 | 9.0 | 20.0 | 0.00 | 0.17 | 0.00 | 89 | 1009.7 |
| 20260507083209 | 51 | 215 | 11.0 | 20.0 | 0.00 | 0.17 | 0.00 | 89 | 1009.6 |
| 20260507082405 | 51 | 224 | 3.0 | 19.0 | 0.00 | 0.17 | 0.00 | 90 | 1009.5 |
| 20260507081810 | 50 | 218 | 9.0 | 20.0 | 0.00 | 0.17 | 0.00 | 90 | 1009.4 |
| 20260507081405 | 50 | 219 | 11.0 | 20.0 | 0.00 | 0.17 | 0.00 | 90 | 1009.5 |
| 20260507080405 | 50 | 226 | 8.0 | 17.0 | 0.00 | 0.17 | 0.00 | 91 | 1009.4 |
| 20260507075707 | 50 | 219 | 4.0 | 17.0 | 0.00 | 0.17 | 0.00 | 92 | 1009.2 |
| 20260507075405 | 50 | 219 | 8.0 | 17.0 | 0.00 | 0.17 | 0.00 | 92 | 1009.2 |
| 20260507075007 | 49 | 233 | 6.0 | 14.0 | 0.00 | 0.17 | 0.00 | 92 | 1009.2 |
| 20260507074405 | 49 | 214 | 4.0 | 14.0 | 0.00 | 0.17 | 0.00 | 92 | 1009.2 |
| 20260507074310 | 49 | 211 | 4.0 | 14.0 | 0.00 | 0.17 | 0.00 | 92 | 1009.1 |
| 20260507073607 | 49 | 212 | 6.0 | 17.0 | 0.00 | 0.17 | 0.00 | 92 | 1009.1 |
| 20260507073405 | 49 | 221 | 9.0 | 17.0 | 0.00 | 0.17 | 0.00 | 92 | 1009.1 |
| 20260507072405 | 49 | 204 | 4.0 | 14.0 | 0.00 | 0.17 | 0.00 | 92 | 1009.0 |
| 20260507071509 | 49 | 202 | 3.0 | 16.0 | 0.00 | 0.17 | 0.00 | 92 | 1009.0 |
| 20260507071405 | 49 | 218 | 4.0 | 16.0 | 0.00 | 0.17 | 0.00 | 92 | 1008.9 |
| 20260507070809 | 49 | 222 | 8.0 | 16.0 | 0.00 | 0.17 | 0.00 | 92 | 1008.9 |
| 20260507070405 | 48 | 201 | 6.0 | 16.0 | 0.00 | 0.17 | 0.00 | 92 | 1008.9 |
| 20260507070109 | 48 | 204 | 6.0 | 16.0 | 0.00 | 0.17 | 0.00 | 92 | 1008.9 |
| 20260507065405 | 48 | 231 | 3.0 | 12.0 | 0.00 | 0.17 | 0.00 | 92 | 1008.7 |
| 20260507064707 | 48 | 215 | 3.0 | 16.0 | 0.00 | 0.17 | 0.00 | 92 | 1008.7 |
| 20260507064405 | 48 | 213 | 6.0 | 17.0 | 0.00 | 0.17 | 0.00 | 91 | 1008.7 |
| 20260507064007 | 48 | 223 | 9.0 | 17.0 | 0.00 | 0.17 | 0.00 | 91 | 1008.7 |
| 20260507063405 | 48 | 224 | 6.0 | 16.0 | 0.00 | 0.17 | 0.00 | 91 | 1008.7 |
| 20260507063309 | 48 | 212 | 6.0 | 16.0 | 0.00 | 0.17 | 0.00 | 91 | 1008.7 |
| 20260507062607 | 49 | 208 | 4.0 | 16.0 | 0.00 | 0.17 | 0.00 | 90 | 1008.5 |
| 20260507062405 | 49 | 219 | 4.0 | 16.0 | 0.00 | 0.17 | 0.00 | 90 | 1008.5 |
| 20260507061909 | 49 | 212 | 8.0 | 17.0 | 0.00 | 0.17 | 0.00 | 90 | 1008.5 |
| 20260507061405 | 49 | 219 | 9.0 | 17.0 | 0.00 | 0.17 | 0.00 | 90 | 1008.2 |
| 20260507060507 | 49 | 192 | 6.0 | 19.0 | 0.00 | 0.17 | 0.00 | 91 | 1008.2 |
| 20260507060405 | 49 | 200 | 12.0 | 19.0 | 0.00 | 0.17 | 0.00 | 91 | 1008.1 |
| 20260507055405 | 49 | 223 | 8.0 | 20.0 | 0.00 | 0.17 | 0.00 | 91 | 1007.9 |
| 20260507055109 | 49 | 204 | 4.0 | 17.0 | 0.00 | 0.17 | 0.00 | 92 | 1007.9 |
| 20260507054405 | 49 | 209 | 4.0 | 16.0 | 0.00 | 0.17 | 0.00 | 92 | 1007.7 |
| 20260507053405 | 48 | 227 | 3.0 | 16.0 | 0.00 | 0.17 | 0.00 | 92 | 1007.7 |
| 20260507053009 | 48 | 235 | 4.0 | 16.0 | 0.00 | 0.17 | 0.00 | 92 | 1007.7 |
| 20260507052405 | 48 | 232 | 8.0 | 16.0 | 0.00 | 0.17 | 0.00 | 92 | 1007.7 |
| 20260507052307 | 48 | 226 | 8.0 | 16.0 | 0.00 | 0.17 | 0.00 | 92 | 1007.7 |
| 20260507051607 | 48 | 223 | 8.0 | 17.0 | 0.00 | 0.17 | 0.00 | 92 | 1007.7 |
| 20260507051405 | 48 | 228 | 8.0 | 17.0 | 0.00 | 0.17 | 0.00 | 91 | 1007.7 |
| 20260507050907 | 48 | 225 | 8.0 | 16.0 | 0.00 | 0.17 | 0.00 | 92 | 1007.6 |
| 20260507050405 | 48 | 241 | 3.0 | 17.0 | 0.00 | 0.17 | 0.00 | 92 | 1007.6 |
| 20260507050207 | 48 | 232 | 4.0 | 17.0 | 0.00 | 0.17 | 0.00 | 91 | 1007.6 |
| 20260507045509 | 48 | 237 | 6.0 | 14.0 | 0.00 | 0.17 | 0.00 | 91 | 1007.6 |
| 20260507045405 | 48 | 237 | 6.0 | 14.0 | 0.00 | 0.17 | 0.00 | 92 | 1007.7 |
| 20260507044809 | 48 | 222 | 4.0 | 17.0 | 0.00 | 0.17 | 0.00 | 92 | 1007.6 |
| 20260507044405 | 48 | 234 | 4.0 | 17.0 | 0.00 | 0.17 | 0.00 | 92 | 1007.6 |
| 20260507044110 | 48 | 227 | 6.0 | 17.0 | 0.00 | 0.17 | 0.00 | 92 | 1007.6 |
| 20260507043405 | 48 | 218 | 3.0 | 16.0 | 0.00 | 0.17 | 0.00 | 91 | 1007.5 |
| 20260507042707 | 48 | 239 | 6.0 | 16.0 | 0.00 | 0.17 | 0.00 | 91 | 1007.4 |
| 20260507042405 | 48 | 242 | 6.0 | 16.0 | 0.00 | 0.16 | 0.00 | 91 | 1007.2 |
| 20260507041405 | 48 | 268 | 6.0 | 17.0 | 0.00 | 0.16 | 0.00 | 91 | 1007.2 |
| 20260507041309 | 48 | 253 | 6.0 | 17.0 | 0.00 | 0.16 | 0.00 | 91 | 1007.2 |
| 20260507040405 | 48 | 234 | 6.0 | 16.0 | 0.00 | 0.16 | 0.00 | 92 | 1007.1 |
| 20260507035907 | 48 | 242 | 8.0 | 12.0 | 0.00 | 0.16 | 0.00 | 92 | 1007.0 |
| 20260507035405 | 48 | 234 | 4.0 | 12.0 | 0.00 | 0.16 | 0.00 | 92 | 1007.0 |
| 20260507034405 | 49 | 231 | 8.0 | 14.0 | 0.00 | 0.17 | 0.00 | 91 | 1007.0 |
| 20260507033405 | 49 | 246 | 3.0 | 12.0 | 0.00 | 0.17 | 0.00 | 91 | 1006.7 |
| 20260507032405 | 49 | 241 | 4.0 | 17.0 | 0.00 | 0.17 | 0.00 | 91 | 1006.7 |
| 20260507031707 | 49 | 232 | 6.0 | 17.0 | 0.00 | 0.17 | 0.00 | 91 | 1006.9 |
| 20260507031405 | 49 | 252 | 4.0 | 14.0 | 0.00 | 0.17 | 0.00 | 91 | 1006.7 |
| 20260507030405 | 49 | 251 | 3.0 | 11.0 | 0.00 | 0.17 | 0.00 | 92 | 1006.7 |
| 20260507025607 | 50 | 243 | 4.0 | 12.0 | 0.00 | 0.17 | 0.00 | 92 | 1006.7 |
| 20260507025405 | 50 | 259 | 4.0 | 12.0 | 0.00 | 0.17 | 0.00 | 92 | 1006.7 |
| 20260507024909 | 50 | 259 | 6.0 | 12.0 | 0.00 | 0.17 | 0.00 | 92 | 1006.7 |
| 20260507024405 | 50 | 238 | 3.0 | 9.0 | 0.00 | 0.17 | 0.00 | 92 | 1006.6 |
| 20260507024207 | 50 | 253 | 1.0 | 11.0 | 0.00 | 0.17 | 0.00 | 92 | 1006.5 |
| 20260507023509 | 50 | 253 | 6.0 | 11.0 | 0.00 | 0.17 | 0.00 | 92 | 1006.6 |
| 20260507023405 | 50 | 254 | 6.0 | 11.0 | 0.00 | 0.17 | 0.00 | 92 | 1006.7 |
| 20260507022405 | 50 | 217 | 1.0 | 9.0 | 0.00 | 0.17 | 0.00 | 92 | 1006.7 |
| 20260507022109 | 50 | 236 | 3.0 | 9.0 | 0.00 | 0.17 | 0.00 | 92 | 1006.7 |
| 20260507021405 | 50 | 0 | 0.0 | 14.0 | 0.00 | 0.17 | 0.00 | 92 | 1006.4 |
| 20260507020709 | 50 | 219 | 4.0 | 14.0 | 0.00 | 0.17 | 0.00 | 92 | 1006.4 |
| 20260507020405 | 50 | 199 | 3.0 | 14.0 | 0.00 | 0.17 | 0.00 | 92 | 1006.2 |
| 20260507015405 | 50 | 221 | 3.0 | 9.0 | 0.00 | 0.17 | 0.00 | 92 | 1006.2 |
| 20260507014405 | 50 | 225 | 6.0 | 16.0 | 0.00 | 0.17 | 0.00 | 92 | 1006.2 |
| 20260507013907 | 51 | 236 | 1.0 | 12.0 | 0.00 | 0.17 | 0.00 | 92 | 1006.2 |
| 20260507013405 | 51 | 226 | 4.0 | 12.0 | 0.00 | 0.17 | 0.00 | 92 | 1006.4 |
| 20260507013207 | 50 | 221 | 4.0 | 12.0 | 0.00 | 0.17 | 0.00 | 92 | 1006.2 |
| 20260507012405 | 51 | 223 | 1.0 | 14.0 | 0.00 | 0.17 | 0.00 | 92 | 1006.2 |
| 20260507011405 | 51 | 249 | 4.0 | 16.0 | 0.00 | 0.17 | 0.00 | 92 | 1006.2 |
| 20260507011109 | 51 | 225 | 6.0 | 16.0 | 0.00 | 0.17 | 0.00 | 92 | 1006.2 |
| 20260507010405 | 51 | 214 | 3.0 | 16.0 | 0.00 | 0.17 | 0.00 | 92 | 1006.2 |
| 20260507005405 | 51 | 230 | 4.0 | 14.0 | 0.00 | 0.17 | 0.00 | 93 | 1006.2 |
| 20260507005009 | 51 | 214 | 4.0 | 14.0 | 0.00 | 0.17 | 0.00 | 92 | 1006.2 |
| 20260507004405 | 51 | 224 | 3.0 | 14.0 | 0.00 | 0.17 | 0.00 | 92 | 1006.2 |
| 20260507004309 | 51 | 223 | 4.0 | 14.0 | 0.00 | 0.17 | 0.00 | 92 | 1006.2 |
| 20260507003609 | 51 | 232 | 4.0 | 14.0 | 0.00 | 0.17 | 0.00 | 92 | 1006.2 |
| 20260507003405 | 51 | 210 | 3.0 | 14.0 | 0.00 | 0.17 | 0.00 | 92 | 1006.1 |
| 20260507002405 | 51 | 0 | 0.0 | 8.0 | 0.00 | 0.17 | 0.00 | 92 | 1006.1 |
| 20260507001510 | 51 | 216 | 1.0 | 12.0 | 0.00 | 0.17 | 0.00 | 92 | 1006.2 |
| 20260507001405 | 51 | 212 | 1.0 | 12.0 | 0.00 | 0.17 | 0.00 | 92 | 1006.2 |
| 20260507000405 | 51 | 214 | 4.0 | 12.0 | 0.00 | 0.17 | 0.00 | 92 | 1006.2 |
| 20260506235405 | 51 | 220 | 3.0 | 11.0 | 0.00 | 0.17 | 0.00 | 92 | 1006.2 |
| 20260506234405 | 51 | 226 | 8.0 | 16.0 | 0.00 | 0.17 | 0.00 | 92 | 1006.2 |
| 20260506233405 | 51 | 220 | 8.0 | 17.0 | 0.00 | 0.16 | 0.00 | 92 | 1006.2 |
| 20260506233309 | 51 | 221 | 4.0 | 16.0 | 0.00 | 0.16 | 0.00 | 92 | 1006.2 |
| 20260506232405 | 52 | 224 | 3.0 | 11.0 | 0.00 | 0.16 | 0.00 | 92 | 1006.2 |
| 20260506231909 | 52 | 250 | 1.0 | 14.0 | 0.00 | 0.16 | 0.00 | 92 | 1006.2 |
| 20260506231405 | 52 | 250 | 4.0 | 14.0 | 0.00 | 0.16 | 0.00 | 92 | 1006.1 |
| 20260506230509 | 52 | 0 | 0.0 | 8.0 | 0.00 | 0.16 | 0.00 | 92 | 1006.1 |
| 20260506230405 | 52 | 0 | 0.0 | 8.0 | 0.00 | 0.16 | 0.00 | 92 | 1006.1 |
| 20260506225807 | 52 | 199 | 1.0 | 8.0 | 0.00 | 0.16 | 0.00 | 92 | 1006.0 |
| 20260506225405 | 52 | 228 | 1.0 | 11.0 | 0.00 | 0.16 | 0.00 | 92 | 1006.0 |
| 20260506224405 | 52 | 248 | 1.0 | 8.0 | 0.00 | 0.16 | 0.00 | 92 | 1006.0 |
| 20260506223405 | 52 | 214 | 1.0 | 8.0 | 0.00 | 0.16 | 0.00 | 92 | 1005.9 |
| 20260506222405 | 52 | 248 | 4.0 | 11.0 | 0.00 | 0.16 | 0.00 | 92 | 1005.7 |
| 20260506222307 | 52 | 260 | 3.0 | 11.0 | 0.00 | 0.16 | 0.00 | 92 | 1005.7 |
| 20260506221609 | 52 | 265 | 3.0 | 11.0 | 0.00 | 0.16 | 0.00 | 92 | 1005.9 |
| 20260506221405 | 52 | 256 | 3.0 | 11.0 | 0.00 | 0.16 | 0.00 | 92 | 1005.7 |
| 20260506220405 | 52 | 0 | 0.0 | 6.0 | 0.02 | 0.16 | 0.00 | 92 | 1005.7 |
| 20260506220207 | 52 | 0 | 0.0 | 6.0 | 0.02 | 0.16 | 0.00 | 92 | 1005.7 |
| 20260506215405 | 52 | 0 | 0.0 | 6.0 | 0.07 | 0.16 | 0.00 | 92 | 1005.7 |
| 20260506214405 | 52 | 248 | 1.0 | 8.0 | 0.10 | 0.16 | 0.00 | 92 | 1005.7 |
| 20260506214109 | 52 | 252 | 3.0 | 8.0 | 0.10 | 0.16 | 0.00 | 92 | 1005.7 |
| 20260506213405 | 52 | 243 | 4.0 | 11.0 | 0.10 | 0.15 | 0.00 | 92 | 1005.9 |
| 20260506212405 | 52 | 231 | 3.0 | 11.0 | 0.11 | 0.15 | 0.00 | 92 | 1005.9 |
| 20260506212007 | 52 | 232 | 1.0 | 12.0 | 0.11 | 0.15 | 0.00 | 92 | 1005.9 |
| 20260506211405 | 52 | 232 | 4.0 | 12.0 | 0.11 | 0.14 | 0.00 | 91 | 1005.9 |
| 20260506211309 | 52 | 240 | 4.0 | 12.0 | 0.12 | 0.14 | 0.00 | 91 | 1005.7 |
| 20260506210609 | 52 | 241 | 4.0 | 12.0 | 0.10 | 0.14 | 0.00 | 91 | 1005.9 |
| 20260506210405 | 52 | 238 | 4.0 | 16.0 | 0.10 | 0.12 | 0.00 | 91 | 1005.9 |
| 20260506205909 | 52 | 223 | 4.0 | 16.0 | 0.08 | 0.10 | 0.00 | 91 | 1005.7 |
| 20260506205405 | 53 | 214 | 3.0 | 16.0 | 0.07 | 0.09 | 0.00 | 91 | 1005.9 |
| 20260506205209 | 53 | 225 | 4.0 | 17.0 | 0.07 | 0.08 | 0.00 | 91 | 1005.9 |
| 20260506204509 | 53 | 230 | 6.0 | 17.0 | 0.02 | 0.05 | 0.00 | 90 | 1005.7 |
| 20260506204405 | 53 | 221 | 6.0 | 17.0 | 0.02 | 0.05 | 0.00 | 90 | 1005.7 |
| 20260506203405 | 53 | 220 | 1.0 | 6.0 | 0.01 | 0.03 | 0.00 | 90 | 1005.7 |
| 20260506202405 | 53 | 0 | 0.0 | 4.0 | 0.00 | 0.02 | 0.00 | 90 | 1005.6 |
| 20260506201405 | 53 | 250 | 3.0 | 6.0 | 0.00 | 0.02 | 0.00 | 89 | 1005.6 |
| 20260506201009 | 53 | 0 | 0.0 | 8.0 | 0.00 | 0.01 | 0.00 | 89 | 1005.5 |
| 20260506200405 | 53 | 206 | 1.0 | 8.0 | 0.00 | 0.01 | 0.00 | 89 | 1005.5 |
| 20260506200307 | 53 | 205 | 3.0 | 8.0 | 0.00 | 0.01 | 0.00 | 89 | 1005.5 |
| 20260506195609 | 53 | 222 | 1.0 | 11.0 | 0.00 | 0.01 | 0.00 | 89 | 1005.2 |
| 20260506195405 | 53 | 236 | 1.0 | 11.0 | 0.00 | 0.01 | 0.00 | 89 | 1005.2 |
| 20260506194909 | 53 | 224 | 3.0 | 11.0 | 0.00 | 0.01 | 0.00 | 89 | 1005.0 |
| 20260506194405 | 54 | 218 | 4.0 | 8.0 | 0.00 | 0.01 | 0.00 | 89 | 1004.9 |
| 20260506194207 | 54 | 224 | 4.0 | 8.0 | 0.00 | 0.01 | 0.00 | 89 | 1004.9 |
| 20260506193509 | 54 | 0 | 0.0 | 3.0 | 0.00 | 0.01 | 0.00 | 89 | 1004.7 |
| 20260506193405 | 54 | 0 | 0.0 | 3.0 | 0.00 | 0.01 | 0.00 | 89 | 1004.7 |
| 20260506192405 | 53 | 285 | 1.0 | 6.0 | 0.00 | 0.01 | 0.00 | 90 | 1004.6 |
| 20260506191405 | 53 | 318 | 1.0 | 4.0 | 0.00 | 0.01 | 0.00 | 90 | 1004.5 |
| 20260506190405 | 53 | 0 | 0.0 | 6.0 | 0.00 | 0.01 | 0.00 | 90 | 1004.4 |
| 20260506190009 | 53 | 0 | 0.0 | 6.0 | 0.00 | 0.01 | 0.00 | 89 | 1004.4 |
| 20260506185405 | 54 | 0 | 0.0 | 0.0 | 0.00 | 0.01 | 0.00 | 88 | 1004.4 |
| 20260506185307 | 54 | 0 | 0.0 | 0.0 | 0.00 | 0.01 | 0.00 | 88 | 1004.4 |
| 20260506184607 | 54 | 0 | 0.0 | 0.0 | 0.00 | 0.01 | 0.00 | 89 | 1004.2 |
| 20260506184405 | 54 | 0 | 0.0 | 8.0 | 0.00 | 0.01 | 0.00 | 89 | 1004.2 |
| 20260506183909 | 54 | 291 | 3.0 | 8.0 | 0.00 | 0.01 | 0.00 | 89 | 1004.1 |
| 20260506183405 | 54 | 0 | 0.0 | 4.0 | 0.00 | 0.01 | 0.00 | 89 | 1004.0 |
| 20260506183207 | 54 | 0 | 0.0 | 4.0 | 0.00 | 0.01 | 0.00 | 90 | 1004.0 |
| 20260506182405 | 54 | 318 | 1.0 | 6.0 | 0.00 | 0.02 | 0.00 | 90 | 1003.9 |
| 20260506181807 | 54 | 324 | 1.0 | 6.0 | 0.00 | 0.02 | 0.00 | 90 | 1003.7 |
| 20260506181405 | 54 | 322 | 1.0 | 6.0 | 0.00 | 0.03 | 0.00 | 89 | 1003.7 |
| 20260506180405 | 54 | 0 | 0.0 | 3.0 | 0.00 | 0.07 | 0.00 | 89 | 1003.7 |
| 20260506175707 | 54 | 0 | 0.0 | 4.0 | 0.00 | 0.10 | 0.00 | 89 | 1004.0 |
| 20260506175405 | 54 | 324 | 1.0 | 4.0 | 0.00 | 0.14 | 0.00 | 89 | 1004.1 |
| 20260506175007 | 54 | 0 | 0.0 | 3.0 | 0.00 | 0.20 | 0.00 | 88 | 1003.9 |
| 20260506174405 | 55 | 0 | 0.0 | 3.0 | 0.00 | 0.28 | 0.00 | 87 | 1003.9 |
| 20260506174309 | 55 | 0 | 0.0 | 3.0 | 0.00 | 0.28 | 0.00 | 87 | 1003.9 |
| 20260506173611 | 56 | 0 | 0.0 | 3.0 | 0.00 | 0.33 | 0.00 | 84 | 1004.0 |
| 20260506173405 | 56 | 0 | 0.0 | 3.0 | 0.00 | 0.33 | 0.00 | 83 | 1004.0 |
| 20260506172907 | 57 | 0 | 0.0 | 6.0 | 0.00 | 0.32 | 0.00 | 82 | 1004.1 |
| 20260506172405 | 57 | 259 | 1.0 | 8.0 | 0.00 | 0.32 | 0.00 | 81 | 1004.0 |
| 20260506172207 | 57 | 0 | 0.0 | 8.0 | 0.00 | 0.32 | 0.00 | 81 | 1004.0 |
| 20260506171507 | 57 | 268 | 3.0 | 12.0 | 0.00 | 0.32 | 0.00 | 80 | 1003.7 |
| 20260506171405 | 57 | 265 | 3.0 | 12.0 | 0.00 | 0.32 | 0.00 | 80 | 1003.7 |
| 20260506170809 | 57 | 303 | 3.0 | 11.0 | 0.00 | 0.32 | 0.00 | 79 | 1003.6 |
| 20260506170405 | 58 | 296 | 4.0 | 14.0 | 0.00 | 0.32 | 0.00 | 78 | 1003.6 |
| 20260506170109 | 58 | 0 | 0.0 | 14.0 | 0.00 | 0.32 | 0.00 | 77 | 1003.6 |
| 20260506165405 | 59 | 316 | 4.0 | 11.0 | 0.00 | 0.32 | 0.00 | 75 | 1003.5 |
| 20260506164405 | 59 | 304 | 4.0 | 11.0 | 0.00 | 0.32 | 0.00 | 72 | 1003.5 |
| 20260506164007 | 60 | 304 | 3.0 | 9.0 | 0.00 | 0.32 | 0.00 | 72 | 1003.5 |
| 20260506163405 | 60 | 317 | 3.0 | 8.0 | 0.00 | 0.32 | 0.00 | 71 | 1003.4 |
| 20260506162609 | 60 | 320 | 1.0 | 9.0 | 0.00 | 0.32 | 0.00 | 70 | 1003.4 |
| 20260506162405 | 60 | 319 | 1.0 | 9.0 | 0.00 | 0.32 | 0.00 | 69 | 1003.4 |
| 20260506161405 | 61 | 314 | 3.0 | 9.0 | 0.00 | 0.32 | 0.00 | 68 | 1003.4 |
| 20260506161207 | 61 | 308 | 3.0 | 6.0 | 0.00 | 0.32 | 0.00 | 68 | 1003.5 |
| 20260506160507 | 61 | 326 | 1.0 | 6.0 | 0.00 | 0.32 | 0.00 | 68 | 1003.5 |
| 20260506160405 | 61 | 0 | 0.0 | 4.0 | 0.00 | 0.32 | 0.00 | 68 | 1003.5 |
| 20260506155809 | 61 | 0 | 0.0 | 3.0 | 0.00 | 0.32 | 0.00 | 68 | 1003.5 |